Melfa, VA

12:07 AM EDT on July 25, 2017 (GMT -0400)
Accomack County

Weather History for KMFV - July, 2012

Change the Weather History Date:

Wednesday, July 25, 2012

  Actual Average (KWAL) Record (KWAL)
Temperature  
Mean Temperature 76 °F -  
Max Temperature 84 °F 82 °F 100 °F (2010)
Min Temperature 69 °F 67 °F 62 °F (2000)
Cooling Degree Days 12    
Growing Degree Days 26 (Base 50)    
Moisture  
Dew Point 65 °F    
Average Humidity 64    
Maximum Humidity 83    
Minimum Humidity 40    
Precipitation  
Precipitation 0.00 in - - ()
Sea Level Pressure  
Sea Level Pressure 29.89 in    
Wind  
Wind Speed 7 mph (North)    
Max Wind Speed 12 mph    
Max Gust Speed 17 mph    
Averages and records for this station are not official NWS values.
T = Trace of Precipitation, MM = Missing Value Source: NWS Daily Summary

Daily Weather History Graph

Daily Weather History Graph

Search for Another Location

Airport or City:

Trip Planner

Search our weather history database for the weather conditions in past years. The results will help you decide how hot, cold, wet, or windy it might be!

Date:

Astronomy

Jul. 25, 2012 Rise Set
Actual Time 6:01 AM EDT 8:17 PM EDT
Civil Twilight 5:31 AM EDT 8:46 PM EDT
Nautical Twilight 4:55 AM EDT 9:22 PM EDT
Astronomical Twilight 4:15 AM EDT 10:02 PM EDT
Moon 12:54 PM EDT 11:51 PM EDT
Length of Visible Light 15h 14m
Length of Day
14h 15m
Waxing Crescent, 42% of the Moon is Illuminated
Jul 25
Waxing Crescent
Jul 26
First Quarter
Aug 1
Full
Aug 9
Last Quarter
Aug 17
New

Hourly Weather History & Observations

Time (EDT) Temp. Heat Index Dew Point Humidity Pressure Visibility Wind Dir Wind Speed Gust Speed Precip Events Conditions
12:35 AM 78.8 °F - 73.4 °F 83% 29.76 in - West 10.4 mph - N/A   Clear
12:55 AM 78.8 °F - 73.4 °F 83% 29.77 in - West 6.9 mph - N/A   Clear
1:15 AM 78.8 °F - 73.4 °F 83% 29.76 in - WNW 9.2 mph - N/A   Clear
1:35 AM 78.8 °F - 73.4 °F 83% 29.76 in - WNW 6.9 mph - N/A   Scattered Clouds
1:55 AM 78.8 °F - 73.4 °F 83% 29.77 in - NW 9.2 mph - N/A   Scattered Clouds
2:15 AM 78.8 °F - 73.4 °F 83% 29.77 in - WNW 8.1 mph - N/A   Unknown
2:35 AM 78.8 °F - 73.4 °F 83% 29.77 in - NW 5.8 mph - N/A   Scattered Clouds
2:55 AM 80.6 °F 85.4 °F 73.4 °F 79% 29.78 in - North 11.5 mph - N/A   Scattered Clouds
3:15 AM 80.6 °F 84.6 °F 71.6 °F 74% 29.79 in - North 8.1 mph - N/A   Clear
3:35 AM 80.6 °F 84.6 °F 71.6 °F 74% 29.78 in - North 9.2 mph - N/A   Clear
3:55 AM 80.6 °F 84.6 °F 71.6 °F 74% 29.79 in - North 6.9 mph - N/A   Clear
4:15 AM 78.8 °F - 69.8 °F 74% 29.81 in - North 6.9 mph - N/A   Clear
5:15 AM 78.8 °F - 66.2 °F 65% 29.84 in - North 8.1 mph - N/A   Clear
5:35 AM 77.0 °F - 66.2 °F 69% 29.85 in - NNE 8.1 mph - N/A   Clear
5:55 AM 77.0 °F - 66.2 °F 69% 29.86 in - North 5.8 mph - N/A   Clear
6:15 AM 75.2 °F - 64.4 °F 69% 29.87 in - NNE 8.1 mph 16.1 mph N/A   Clear
6:35 AM 75.2 °F - 64.4 °F 69% 29.88 in - North 10.4 mph - N/A   Clear
6:55 AM 75.2 °F - 62.6 °F 65% 29.89 in - NNE 9.2 mph - N/A   Clear
7:15 AM 75.2 °F - 62.6 °F 65% 29.89 in - NNE 6.9 mph - N/A   Clear
7:35 AM 75.2 °F - 62.6 °F 65% 29.91 in - NNE 6.9 mph - N/A   Clear
7:55 AM 77.0 °F - 62.6 °F 61% 29.91 in - NNE 5.8 mph - N/A   Clear
8:15 AM 77.0 °F - 62.6 °F 61% 29.92 in - NNE 11.5 mph 16.1 mph N/A   Clear
8:35 AM 78.8 °F - 62.6 °F 57% 29.93 in - NNE 11.5 mph 17.3 mph N/A   Clear
8:55 AM 78.8 °F - 62.6 °F 57% 29.93 in - North 6.9 mph - N/A   Clear
9:15 AM 78.8 °F - 62.6 °F 57% 29.93 in - NNE 6.9 mph - N/A   Clear
9:35 AM 78.8 °F - 62.6 °F 57% 29.93 in - North 8.1 mph - N/A   Clear
9:55 AM 78.8 °F - 62.6 °F 57% 29.93 in - North 10.4 mph - N/A   Clear
10:15 AM 80.6 °F 81.8 °F 62.6 °F 54% 29.93 in - NE 6.9 mph - N/A   Clear
10:35 AM 80.6 °F 81.5 °F 60.8 °F 51% 29.93 in - NE 8.1 mph - N/A   Clear
10:55 AM 80.6 °F 81.5 °F 60.8 °F 51% 29.93 in - ENE 6.9 mph - N/A   Clear
11:15 AM 80.6 °F 81.5 °F 60.8 °F 51% 29.94 in - NE 5.8 mph - N/A   Clear
11:35 AM 80.6 °F 81.8 °F 62.6 °F 54% 29.94 in - NE 6.9 mph - N/A   Clear
11:55 AM 82.4 °F 83.4 °F 62.6 °F 51% 29.93 in - NNE 4.6 mph - N/A   Clear
12:15 PM 82.4 °F 83.4 °F 62.6 °F 51% 29.93 in - ENE 5.8 mph - N/A   Clear
12:35 PM 82.4 °F 82.9 °F 60.8 °F 48% 29.94 in - NE 3.5 mph - N/A   Clear
1:15 PM 84.2 °F 85.0 °F 62.6 °F 48% 29.95 in - ENE 4.6 mph - N/A   Clear
1:35 PM 82.4 °F 82.9 °F 60.8 °F 48% 29.95 in - NW 5.8 mph - N/A   Clear
1:55 PM 82.4 °F 83.4 °F 62.6 °F 51% 29.94 in - WNW 3.5 mph - N/A   Clear
2:15 PM 82.4 °F 83.4 °F 62.6 °F 51% 29.93 in - West 9.2 mph - N/A   Clear
2:35 PM 82.4 °F 83.9 °F 64.4 °F 54% 29.94 in - WNW 8.1 mph - N/A   Clear
3:35 PM 82.4 °F 83.4 °F 62.6 °F 51% 29.92 in - WSW 6.9 mph - N/A   Clear
3:55 PM 82.4 °F 83.9 °F 64.4 °F 54% 29.92 in - WNW 6.9 mph - N/A   Clear
4:15 PM 82.4 °F 83.4 °F 62.6 °F 51% 29.91 in - NW 3.5 mph - N/A   Clear
4:35 PM 82.4 °F 82.9 °F 60.8 °F 48% 29.92 in - WNW 5.8 mph - N/A   Clear
4:55 PM 82.4 °F 82.0 °F 57.2 °F 42% 29.91 in - NW 3.5 mph - N/A   Clear
5:15 PM 84.2 °F 83.5 °F 57.2 °F 40% 29.91 in - Calm Calm - N/A   Clear
5:35 PM 82.4 °F 82.0 °F 57.2 °F 42% 29.91 in - Calm Calm - N/A   Clear
5:55 PM 82.4 °F 82.0 °F 57.2 °F 42% 29.91 in - Calm Calm - N/A   Clear
6:15 PM 82.4 °F 83.9 °F 64.4 °F 54% 29.91 in - WSW 3.5 mph - N/A   Clear
6:35 PM 82.4 °F 83.9 °F 64.4 °F 54% 29.92 in - South 4.6 mph - N/A   Clear
6:55 PM 80.6 °F 82.3 °F 64.4 °F 58% 29.92 in - Calm Calm - N/A   Clear
7:15 PM 80.6 °F 82.7 °F 66.2 °F 61% 29.92 in - SSE 8.1 mph - N/A   Clear
7:35 PM 78.8 °F - 66.2 °F 65% 29.92 in - South 4.6 mph - N/A   Clear
7:55 PM 77.0 °F - 66.2 °F 69% 29.92 in - SSE 4.6 mph - N/A   Clear
8:15 PM 75.2 °F - 66.2 °F 73% 29.91 in - South 3.5 mph - N/A   Clear
8:35 PM 73.4 °F - 66.2 °F 78% 29.91 in - SSE 3.5 mph - N/A   Clear
8:55 PM 73.4 °F - 66.2 °F 78% 29.92 in - Calm Calm - N/A   Clear
9:15 PM 71.6 °F - 64.4 °F 78% 29.92 in - South 3.5 mph - N/A   Clear
9:35 PM 71.6 °F - 64.4 °F 78% 29.92 in - South 3.5 mph - N/A   Clear
9:55 PM 69.8 °F - 64.4 °F 83% 29.93 in - South 3.5 mph - N/A   Clear
10:15 PM 71.6 °F - 64.4 °F 78% 29.93 in - South 3.5 mph - N/A   Clear
10:35 PM 69.8 °F - 64.4 °F 83% 29.93 in - South 3.5 mph - N/A   Unknown
10:55 PM 69.8 °F - 64.4 °F 83% 29.93 in - South 4.6 mph - N/A   Unknown
11:15 PM 69.8 °F - 64.4 °F 83% 29.92 in - South 4.6 mph - N/A   Clear
11:35 PM 69.8 °F - 64.4 °F 83% 29.92 in - South 5.8 mph - N/A   Clear
11:55 PM 71.6 °F - 66.2 °F 83% 29.92 in - South 4.6 mph - N/A   Clear